Simultaneous Nadir Overpasses (SNOs) Predictions

Prediction of SNOs between GOES-17 and METOP-B Satellite Orbit:

Table of predicted SNOs for the next 14.0 days since TLE Epoch: 2/22/2020
Index Date Time (GOES-17) GOES-17 Lat,Lon METOP-B Lat,Lon Distance(km) Time Diff (sec)
1 02/22/2020 06:23:47 0.01,-137.21 0.90,-133.13 464.02 80
2 02/23/2020 18:40:00 -0.01,-137.22 0.12,-137.70 55.20 80
3 02/26/2020 06:38:21 0.00,-137.19 -0.02,-137.30 12.04 80
4 02/28/2020 18:39:15 -0.01,-137.19 -0.10,-136.87 36.29 80
5 03/01/2020 06:55:36 0.01,-137.16 -0.94,-141.46 490.53 80
6 03/02/2020 06:37:36 0.01,-137.14 0.15,-136.47 77.03 80
7 03/03/2020 18:53:48 -0.02,-137.13 0.88,-141.03 444.64 80
8 03/04/2020 18:35:50 -0.02,-137.11 -0.27,-136.04 122.38 80
9 03/06/2020 06:52:10 0.02,-137.07 -0.76,-140.63 405.85 80




NCC Satellite Simultaneous Nadir Overpasses (SNOs) Prediction Service
